Regional Weather Roundup
Issued by NWS

Home | Current Version | Previous Version | Text Only | Print | Product List | Glossary Off
Versions: 1 2 3 4 5 6 7 8 9 10 11 12 13 14 15 16 17 18 19 20 21 22 23 24 25 26 27 28 29 30 31 32 33 34 35 36 37 38 39 40 41 42 43 44 45 46 47 48 49 50

000
ASUS45 KTFX 260719
RWRMT
MONTANA HOURLY WEATHER ROUNDUP
NATIONAL WEATHER SERVICE GREAT FALLS MT
119 AM MDT SUN OCT 26 2014

NOTE: "FAIR" INDICATES FEW OR NO CLOUDS BELOW 12000 FEET WITH NO
SIGNIFICANT WEATHER AND/OR OBSTRUCTIONS TO VISIBILITY.

* THESE STATIONS ARE NOT UNDER NWS QUALITY CONTROL. THEY DO NOT
   REPORT WEATHER SUCH AS PRECIPITATION OR FOG.

MTZ001>007-043-260800-
WEST OF THE DIVIDE
CITY           SKY/WX    TMP DP  RH WIND       PRES   REMARKS
KALISPELL      CLOUDY    46  43  89 E9        29.63R
MISSOULA       PTCLDY    43  39  86 W3        29.67R
BUTTE          MOCLDY    52  34  50 SW8       29.77F
MULLAN PASS    LGT RAIN  39  37  93 SW10G28   29.70S WCI  32
* ESSEX        N/A       56  34  44 S4G19      N/A
* LINCOLN      N/A       39  38  96 N1         N/A
* LOOKOUT PASS N/A       46  40  80 S9G14      N/A
* POLSON       N/A       52  40  64 S3G10      N/A
* RONAN APT    MOCLDY    55  39  55 S5         N/A
* SEELEY LAKE  N/A       37  35  92 NE2G7      N/A
* THOMP F APT  CLOUDY    48  35  61 NW1G12     N/A
* YAAK HILL    N/A       48  45  89 NE3        N/A
$$

MTZ008-052>055-260800-
SOUTHWEST MONTANA
CITY           SKY/WX    TMP DP  RH WIND       PRES   REMARKS
BOZEMAN        CLOUDY    54  36  51 W12       29.72R
DILLON         LGT RAIN  48  36  63 SW18      29.80F
W YELLOWSTONE  LGT RAIN  41  39  93 S9        29.87F
* THREE FORKS  CLOUDY    57  57 100 W10G17     N/A
* BOULDER HILL N/A       53  26  35 S15G24     N/A
* MONIDA PASS  N/A       49  31  50 W18G27     N/A
* RAYNOLDS PAS N/A       44  29  56 S12G17     N/A
* WHITEHALL    N/A       53  37  55 NW3G19     N/A
* WISE RIVER   N/A       49  35  59 W16G23     N/A
$$

MTZ009>010-012-014-046-048-049-054-260800-
EAST SLOPES AND CENTRAL MONTANA
CITY           SKY/WX    TMP DP  RH WIND       PRES   REMARKS
CUT BANK       CLEAR     46  34  63 SW9       29.54F
GREAT FALLS    CLOUDY    48  37  66 S10       29.60F
HELENA         MOCLDY    48  41  77 SW7       29.65F
MALMSTROM AFB  CLOUDY    54  39  57 SW9       29.61F
* CONRAD       PTCLDY    45  39  80 W5         N/A
* DEARBORN     N/A       56  39  53 SW5        N/A
* EAST GLACIER N/A       54  30  40 W23G29     N/A
* MONARCH      N/A       53  25  34 W11        N/A
* PENDROY      N/A       47  31  54 SW8        N/A
* ROGERS PASS  N/A       50  32  50 SE7G13     N/A
* SAINT MARY   N/A       56  32  40 SW6G20     N/A
* SWEET GRASS  N/A       43  40  89 S17        N/A
* WHITE SULPH  N/A       52  31  45 NW4        N/A
$$

MTZ011-013-016-021-035-040-045-047-050-051-260800-
NORTH CENTRAL MONTANA
CITY           SKY/WX    TMP DP  RH WIND       PRES   REMARKS
HAVRE          PTCLDY    45  37  74 S9        29.57F
LEWISTOWN      CLEAR     45  34  65 SE8       29.62F
* FORT BENTON  PTCLDY    46  41  83 S9        29.60F
* CHESTER      N/A       40  34  79 N/A        N/A
* DENTON       N/A       52  32  47 SW9        N/A
* GEYSER       N/A       55  34  45 SW12G17    N/A
* JUDITH GAP   N/A       41  35  79 S4         N/A
* LOMA         N/A       44  39  83 SE6        N/A
$$

MTZ017>020-022>027-061-062-260800-
NORTHEAST MONTANA
CITY           SKY/WX    TMP DP  RH WIND       PRES   REMARKS
GLASGOW        MOCLDY    48  32  54 E10       29.56F
GLENDIVE       CLOUDY    52  34  50 SE8       29.61F
JORDAN         MOCLDY    43  32  65 CALM      29.57F
SIDNEY         CLOUDY    46  32  58 CALM      29.64F
WOLF POINT     CLOUDY    48  34  59 E10       29.59F
* BEAVER HILL  N/A       51  32  48 SE21G27    N/A
* CIRCLE       N/A       53  36  53 N2         N/A
* LINDSAY DVD  N/A       45  34  65 E9         N/A
* NAVAJO       N/A       47  31  54 SE6        N/A
$$

MTZ028>042-056>058-260800-
SOUTHCENTRAL AND SOUTHEAST MONTANA
CITY           SKY/WX    TMP DP  RH WIND       PRES   REMARKS
BAKER          CLOUDY    52  32  47 SE20G29   29.65F
BILLINGS       PTCLDY    52  36  55 SW16      29.63F
LIVINGSTON     CLOUDY    64  30  28 SW30G40   29.66F
MILES CITY     CLOUDY    54  37  53 SE8       29.58F
* LAUREL APT   PTCLDY    46  34  63 N/A        N/A
* ROUNDUP APT  CLEAR     43  32  65 SW7        N/A
* ALZADA       N/A       43  37  79 E4         N/A
* HYSHAM       N/A       50  34  54 W7         N/A
* LAME DEER    N/A       61  27  27 SW8        N/A
* REED POINT   N/A       40  37  89 W8G17      N/A   WCI  35
* ROSCOE HILL  N/A       58  21  24 W6G20      N/A
$$

REGIONAL REPORTS...DAKOTAS
CITY           SKY/WX    TMP DP  RH WIND       PRES   REMARKS
WILLISTON      MOCLDY    54  30  40 SE10      29.68F
DICKINSON      MOCLDY    50  30  46 SE18      29.69F
BEACH          N/A       48  30  50 SE20G25   29.64F
CROSBY         CLEAR     48  30  50 SE17G28   29.70F
TIOGA          CLEAR     48  30  50 SE14G20   29.75F
BISMARCK       CLEAR     45  32  60 E12       29.86F
GRAND FORKS    PTCLDY    34  25  70 S5        29.97F WCI  29
FARGO          PTCLDY    37  21  52 SE5       29.99S WCI  33
BUFFALO SD     MOCLDY    50  32  50 S21       29.62F
RAPID CITY     CLOUDY    48  37  66 SE7       29.76F
$$

REGIONAL REPORTS...WYOMING/IDAHO/WASHINGTON
CITY           SKY/WX    TMP DP  RH WIND       PRES   REMARKS
GILLETTE       MOCLDY    57  30  36 S15       29.72F
SHERIDAN       MOCLDY    55  27  34 SW6       29.65F
CODY           PTCLDY    59  28  31 SW15      29.72F
YELLOWSTONE LA MOCLDY    37  36  96 W8G20     29.96R WCI  31
SALMON         MOCLDY    52  36  55 S8        29.78F
MULLAN PASS    LGT RAIN  39  37  93 SW10G28   29.70S WCI  32
SAND POINT     LGT RAIN  54  45  72 SW7G16    29.59R
SPOKANE        CLOUDY    52  43  72 SW29G47   29.63R
$$

REGIONAL REPORTS...ALBERTA
CITY           SKY/WX    TMP DP  RH WIND       PRES   REMARKS
CALGARY        MOCLDY    43  34  71 VRB2      29.38F
LETHBRIDGE     CLEAR     43  36  76 SW12      29.48S
MEDICINE HAT   CLEAR     39  36  89 N5        29.48F WCI  35
EDMONTON       MOCLDY    37  27  67 E9        29.46F WCI  30
WATERTON GATE  N/A       52  37  57 W18G30     N/A
CARDSTON       N/A       55  34  45 SW8        N/A
MILK RIVER     N/A       39  32  76 SE6        N/A   WCI  35
$$

REGIONAL REPORTS...SASKATCHEWAN
CITY           SKY/WX    TMP DP  RH WIND       PRES   REMARKS
SWIFT CURRENT  MOCLDY    45  32  60 S10G22    29.54F
REGINA         N/A       45  30  56 E18G25    29.68F
VAL MARIE      N/A       39  32  76 NE1        N/A
ASSINIBOIA     N/A       46  32  58 SE12       N/A

$$




USA.gov is the U.S. government's official web portal to all federal, state and local government web resources and services.